Location: Barcelona
(41.3830°N, 2.1830°E)
Time: 13:02:53
(UTC+01:00)

ISS - Pass Details

Date: 23 March 2019
Orbit: 408 x 411 km, 51.6° (Epoch: 24 March)

Event Time Altitude Azimuth Distance (km) Brightness Sun altitude
Rises 20:17:35 0° 241° (WSW) 2,325 0.8 -14.0°
Reaches altitude 10° 20:19:40 10° 245° (WSW) 1,467 -0.3 -14.4°
Maximum altitude 20:22:56 63° 327° (NNW) 460 -3.4 -15.0°
Enters shadow 20:25:17 17° 46° (NE) 1,103 -1.9 -15.4°
